Weather History for Port Huron, MI

Change the Weather History Date:

Wednesday, March 6, 2013

  Actual Average (KMTC) Record (KMTC)
Temperature  
Mean Temperature 34 °F -  
Max Temperature 41 °F 38 °F 68 °F (2009)
Min Temperature 28 °F 23 °F 4 °F (1960)
Degree Days  
Heating Degree Days 30    
Moisture  
Dew Point 28 °F    
Average Humidity 80    
Maximum Humidity 87    
Minimum Humidity 65    
Precipitation  
Precipitation 0.00 in - - ()
Sea Level Pressure  
Sea Level Pressure 30.06 in    
Wind  
Wind Speed 8 mph (NNE)    
Max Wind Speed 15 mph    
Max Gust Speed 20 mph    
Visibility 10 miles    
Events      
Averages and records for this station are not official NWS values.
T = Trace of Precipitation, MM = Missing Value Source: NWS Daily Summary

Daily Weather History Graph

Daily Weather History Graph

Search for Another Location

Airport:

Trip Planner

Search our weather history database for the weather conditions in past years. The results will help you decide how hot, cold, wet, or windy it might be!

Date:

Astronomy

Mar. 06, 2013 Rise Set
Actual Time 6:57 AM EST 6:25 PM EST
Civil Twilight 6:28 AM EST 6:54 PM EST
Nautical Twilight 5:56 AM EST 7:27 PM EST
Astronomical Twilight 5:23 AM EST 8:00 PM EST
Moon 3:11 AM EST (3/6) 1:00 PM EST (3/6)
Length of Visible Light 12h 25m
Length of Day
11h 28m
Waning Crescent, 30% of the Moon is Illuminated
Mar 6
Waning Crescent
Mar 11
New
Mar 19
First Quarter
Mar 27
Full
Apr 3
Last Quarter

Hourly Weather History & Observations

Time (EST) Temp. Windchill Dew Point Humidity Pressure Visibility Wind Dir Wind Speed Gust Speed Precip Events Conditions
12:19 AM 28.4 °F 19.1 °F 24.8 °F 86% 29.88 in 10.0 mi NNE 10.4 mph - N/A   Overcast
12:39 AM 28.4 °F 18.0 °F 24.8 °F 86% 29.88 in 10.0 mi NNE 12.7 mph - N/A   Overcast
12:59 AM 28.4 °F 19.1 °F 24.8 °F 86% 29.87 in 10.0 mi NNE 10.4 mph - N/A   Overcast
1:19 AM 28.4 °F 18.0 °F 24.8 °F 86% 29.87 in 10.0 mi NNE 12.7 mph 16.1 mph N/A   Mostly Cloudy
1:39 AM 28.4 °F 18.0 °F 24.8 °F 86% 29.88 in 10.0 mi NNE 12.7 mph - N/A   Mostly Cloudy
1:59 AM 28.4 °F 17.5 °F 24.8 °F 86% 29.88 in 10.0 mi NNE 13.8 mph 17.3 mph N/A   Scattered Clouds
2:19 AM 30.2 °F 20.2 °F 24.8 °F 80% 29.89 in 10.0 mi NNE 12.7 mph 19.6 mph N/A   Clear
2:39 AM 30.2 °F 19.3 °F 24.8 °F 80% 29.89 in 10.0 mi NNE 15.0 mph 19.6 mph N/A   Clear
2:59 AM 30.2 °F 20.8 °F 24.8 °F 80% 29.88 in 10.0 mi NNE 11.5 mph - N/A   Clear
3:19 AM 30.2 °F 21.3 °F 24.8 °F 80% 29.88 in 10.0 mi NNE 10.4 mph - N/A   Clear
3:39 AM 30.2 °F 22.6 °F 26.6 °F 86% 29.89 in 10.0 mi NNE 8.1 mph - N/A   Clear
3:59 AM 30.2 °F 21.9 °F 26.6 °F 86% 29.89 in 10.0 mi NNE 9.2 mph - N/A   Clear
4:19 AM 30.2 °F 21.3 °F 26.6 °F 86% 29.89 in 10.0 mi NNE 10.4 mph - N/A   Clear
4:39 AM 30.2 °F 20.8 °F 26.6 °F 86% 29.90 in 10.0 mi NNE 11.5 mph - N/A   Clear
4:59 AM 30.2 °F 21.9 °F 26.6 °F 86% 29.91 in 10.0 mi NNE 9.2 mph - N/A   Clear
5:19 AM 30.2 °F 22.6 °F 26.6 °F 86% 29.92 in 10.0 mi NNE 8.1 mph - N/A   Clear
5:39 AM 30.2 °F 20.8 °F 26.6 °F 86% 29.94 in 10.0 mi NNE 11.5 mph 17.3 mph N/A   Clear
5:59 AM 30.2 °F 20.8 °F 26.6 °F 86% 29.95 in 10.0 mi NNE 11.5 mph 17.3 mph N/A   Clear
6:19 AM 30.2 °F 21.3 °F 26.6 °F 86% 29.97 in 10.0 mi NNE 10.4 mph - N/A   Clear
6:39 AM 28.4 °F 19.1 °F 24.8 °F 86% 29.97 in 10.0 mi NE 10.4 mph - N/A   Clear
6:59 AM 28.4 °F 19.1 °F 24.8 °F 86% 29.98 in 7.0 mi NE 10.4 mph - N/A   Clear
7:19 AM 28.4 °F 19.7 °F 24.8 °F 86% 29.99 in 7.0 mi NE 9.2 mph - N/A   Clear
7:39 AM 30.2 °F 24.3 °F 26.6 °F 86% 30.00 in 7.0 mi North 5.8 mph - N/A   Clear
7:59 AM 30.2 °F 24.3 °F 26.6 °F 86% 30.01 in 10.0 mi NNE 5.8 mph - N/A   Clear
8:19 AM 32.0 °F 24.8 °F 26.6 °F 80% 30.02 in 10.0 mi NE 8.1 mph - N/A   Clear
8:39 AM 32.0 °F 25.6 °F 26.6 °F 80% 30.03 in 10.0 mi NNE 6.9 mph - N/A   Clear
8:59 AM 33.8 °F 28.6 °F 28.4 °F 81% 30.04 in 10.0 mi NNE 5.8 mph - N/A   Clear
9:19 AM 33.8 °F 28.6 °F 28.4 °F 81% 30.05 in 10.0 mi NNE 5.8 mph - N/A   Clear
9:39 AM 33.8 °F 27.0 °F 28.4 °F 81% 30.06 in 10.0 mi NNE 8.1 mph - N/A   Clear
9:59 AM 35.6 °F 28.6 °F 28.4 °F 75% 30.07 in 10.0 mi North 9.2 mph - N/A   Clear
10:19 AM 35.6 °F 28.6 °F 30.2 °F 81% 30.08 in 10.0 mi NNE 9.2 mph - N/A   Clear
10:39 AM 37.4 °F 32.1 °F 30.2 °F 75% 30.09 in 10.0 mi NNE 6.9 mph - N/A   Clear
10:59 AM 37.4 °F 32.1 °F 30.2 °F 75% 30.09 in 10.0 mi NE 6.9 mph - N/A   Clear
11:19 AM 39.2 °F 35.0 °F 32.0 °F 75% 30.09 in 10.0 mi NNE 5.8 mph - N/A   Clear
11:39 AM 39.2 °F 33.6 °F 30.2 °F 70% 30.09 in 10.0 mi NNE 8.1 mph - N/A   Clear
11:59 AM 39.2 °F 35.0 °F 30.2 °F 70% 30.09 in 10.0 mi North 5.8 mph - N/A   Scattered Clouds
12:19 PM 39.2 °F 35.0 °F 30.2 °F 70% 30.09 in 10.0 mi North 5.8 mph - N/A   Scattered Clouds
12:39 PM 41.0 °F 35.2 °F 32.0 °F 70% 30.09 in 10.0 mi NE 9.2 mph - N/A   Clear
12:59 PM 41.0 °F 35.8 °F 32.0 °F 70% 30.09 in 10.0 mi ENE 8.1 mph - N/A   Clear
1:19 PM 41.0 °F 39.0 °F 32.0 °F 70% 30.10 in 10.0 mi ENE 3.5 mph - N/A   Clear
1:59 PM 41.0 °F 36.4 °F 32.0 °F 70% 30.11 in 10.0 mi NW 6.9 mph - N/A   Scattered Clouds
2:19 PM 41.0 °F 34.3 °F 30.2 °F 65% 30.11 in 10.0 mi NNW 11.5 mph 18.4 mph N/A   Scattered Clouds
2:39 PM 41.0 °F 37.1 °F 32.0 °F 70% 30.12 in 10.0 mi NNE 5.8 mph - N/A   Scattered Clouds
2:59 PM 41.0 °F 38.0 °F 32.0 °F 70% 30.11 in 10.0 mi NE 4.6 mph - N/A   Clear
3:19 PM 41.0 °F 37.1 °F 32.0 °F 70% 30.12 in 10.0 mi NNE 5.8 mph - N/A   Mostly Cloudy
3:39 PM 41.0 °F - 30.2 °F 65% 30.12 in 10.0 mi Calm Calm - N/A   Overcast
3:59 PM 41.0 °F - 32.0 °F 70% 30.12 in 10.0 mi Calm Calm - N/A   Overcast
4:19 PM 41.0 °F 37.1 °F 30.2 °F 65% 30.12 in 10.0 mi North 5.8 mph - N/A   Mostly Cloudy
4:39 PM 39.2 °F 37.0 °F 30.2 °F 70% 30.13 in 10.0 mi NNE 3.5 mph - N/A   Scattered Clouds
4:59 PM 39.2 °F 34.2 °F 30.2 °F 70% 30.13 in 10.0 mi North 6.9 mph - N/A   Clear
5:19 PM 37.4 °F 32.1 °F 30.2 °F 75% 30.14 in 10.0 mi NNE 6.9 mph - N/A   Clear
5:39 PM 35.6 °F 29.9 °F 30.2 °F 81% 30.15 in 10.0 mi NNE 6.9 mph - N/A   Clear
5:59 PM 35.6 °F 30.7 °F 30.2 °F 81% 30.16 in 10.0 mi North 5.8 mph - N/A   Scattered Clouds
6:19 PM 35.6 °F 31.7 °F 28.4 °F 75% 30.16 in 10.0 mi North 4.6 mph - N/A   Clear
6:39 PM 33.8 °F 29.6 °F 28.4 °F 81% 30.17 in 10.0 mi North 4.6 mph - N/A   Clear
6:59 PM 33.8 °F 30.8 °F 28.4 °F 81% 30.17 in 10.0 mi NNE 3.5 mph - N/A   Clear
7:19 PM 33.8 °F 29.6 °F 28.4 °F 81% 30.17 in 10.0 mi NNE 4.6 mph - N/A   Clear
7:39 PM 33.8 °F 30.8 °F 28.4 °F 81% 30.18 in 10.0 mi NNW 3.5 mph - N/A   Mostly Cloudy
7:59 PM 33.8 °F 30.8 °F 28.4 °F 81% 30.18 in 10.0 mi NNE 3.5 mph - N/A   Overcast
8:19 PM 33.8 °F - 28.4 °F 81% 30.18 in 10.0 mi Calm Calm - N/A   Overcast
8:39 PM 33.8 °F 30.8 °F 28.4 °F 81% 30.18 in 10.0 mi NNE 3.5 mph - N/A   Overcast
8:59 PM 33.8 °F - 28.4 °F 81% 30.18 in 10.0 mi Calm Calm - N/A   Overcast
9:19 PM 33.8 °F - 28.4 °F 81% 30.19 in 10.0 mi Calm Calm - N/A   Overcast
9:39 PM 33.8 °F 30.8 °F 28.4 °F 81% 30.19 in 10.0 mi NW 3.5 mph - N/A   Overcast
9:59 PM 33.8 °F - 28.4 °F 81% 30.20 in 10.0 mi Calm Calm - N/A   Overcast
10:19 PM 32.0 °F - 28.4 °F 87% 30.19 in 10.0 mi Calm Calm - N/A   Overcast
10:39 PM 32.0 °F - 28.4 °F 87% 30.20 in 10.0 mi Calm Calm - N/A   Overcast
10:59 PM 32.0 °F - 28.4 °F 87% 30.19 in 10.0 mi Calm Calm - N/A   Overcast
11:19 PM 32.0 °F - 28.4 °F 87% 30.19 in 10.0 mi Calm Calm - N/A   Overcast
11:39 PM 32.0 °F 28.7 °F 28.4 °F 87% 30.20 in 10.0 mi NW 3.5 mph - N/A   Overcast
11:59 PM 32.0 °F - 28.4 °F 87% 30.19 in 10.0 mi Calm Calm - N/A   Overcast